Other Public Products
Issued by NWS Charleston, SC

Current Version | Previous Version | Graphics & Text | Print | Product List | Glossary On
Versions: 1 2 3 4 5 6 7 8 9 10 11 12 13 14 15 16 17 18 19 20 21 22 23 24 25 26 27 28 29 30 31 32 33 34 35 36 37 38 39 40 41 42 43 44 45 46 47 48 49 50
029
FPUS82 KCHS 110111
OPUCHS

TEST...KCHS/KSAV Gateway Observations...TEST
National Weather Service Charleston SC
800 PM EST SUN DEC 10 2017

NOTE: "fair" indicates few or no clouds below 12,000 feet with no
significant weather and/or obstructions to visibility.

SCZ050-WAZ558-NCZ071-TXZ119-213-PAZ071-DCZ001-FLZ074-172-MI076-
NYZ176-178-MAZ016-IL014-TNZ027-NJZ106-GAZ044-MD014-110200-

...Gateway Observations for Charleston International...

CITY           SKY/WX    TMP DP  RH WIND       PRES   REMARKS
Chas Airport   CLEAR     37  31  78 SW5       30.24S WCI  33
Seattle        PTCLDY    44  31  60 N10       30.34S
Charlotte      CLEAR     36  24  62 S5        30.14F WCI  32
Dallas DFW     CLEAR     63  19  18 SW8       30.28R
Dallas Love    PTCLDY    60  22  23 CALM      30.29R
Philladelphia  CLOUDY    36  23  59 SW9       30.05R WCI  29
Wash National  MOCLDY    37  27  67 S12       30.08R WCI  29
Baltimore      MOCLDY    32  23  69 CALM      30.05S
Miami          CLEAR     56  42  59 NW7       30.28R
Detroit        CLOUDY    30  22  72 SW14      29.95R WCI  19
Newark         CLOUDY    35  23  61 SW12      30.02R WCI  27
Laguardia      CLOUDY    37  22  54 SW13      30.00R WCI  29
J F K          CLOUDY    37  25  61 W21       30.02R WCI  26
Boston Logan   MOCLDY    32  25  75 SW12      29.94R WCI  23
Ft. Lauderdale PTCLDY    53  43  68 NW9       30.27R
Chicago O`Hare MOCLDY    30  19  63 NW9       30.05R WCI  22
Chicago Midway CLOUDY    31  21  66 N13       30.05R WCI  21
Houston Bush   PTCLDY    49  38  65 SW3       30.38R
Houston Hobby  PTCLDY    50  37  61 SW3       30.37R
Nashville      CLEAR     42  21  43 SW6       30.16R
Atlanta        CLEAR     37  26  64 SW5       30.22F WCI  33

$$

GAZ044-118-TXZ119-213-NCZ071-DCZ001-MDZ014-506-PAZ021-071-NJZ106-
NYZ176-178-MAZ106-OHZ011-021-055-MIZ076-KYZ091-ILZ014-INZ047-
MNZ060-ONZ431-110200-

...Gateway Observations for Savannah International...

CITY           SKY/WX    TMP DP  RH WIND       PRES   REMARKS
Savannah Arpt  CLEAR     37  32  82 SW3       30.26S
Atlanta        CLEAR     37  26  64 SW5       30.22F WCI  33
Charlotte      CLEAR     36  24  62 S5        30.14F WCI  32
Dallas DFW     CLEAR     63  19  18 SW8       30.28R
Houston Bush   PTCLDY    49  38  65 SW3       30.38R
Wash National  MOCLDY    37  27  67 S12       30.08R WCI  29
Wash Dulles    CLOUDY    31  27  85 S3        30.05R
Baltimore      MOCLDY    32  23  69 CALM      30.05S
Philadelphia   CLOUDY    36  23  59 SW9       30.05R WCI  29
Newark         CLOUDY    35  23  61 SW12      30.02R WCI  27
Laguardia      CLOUDY    37  22  54 SW13      30.00R WCI  29
J F K          CLOUDY    37  25  61 W21       30.02R WCI  26
Boston         MOCLDY    32  25  75 SW12      29.94R WCI  23
Pittsburg      CLOUDY    32  17  54 W8        29.97R WCI  25
Akron          CLOUDY    29  17  61 SW10      29.96S WCI  20
Cleveland      CLOUDY    30  19  63 SW12      29.98F WCI  20
Cincinnati     PTCLDY    33  20  58 SW6       30.02R WCI  28
Columbus       CLOUDY    30  23  75 SW5       30.02S WCI  25
Detroit        CLOUDY    30  22  72 SW14      29.95R WCI  19
Chicago O`Hare MOCLDY    30  19  63 NW9       30.05R WCI  22
Minneapolis    CLOUDY    25  20  81 CALM      30.05S
Indianapolis   PTCLDY    29  21  72 W9        30.02R WCI  20
Toronto Canada CLOUDY    27  19  74 W18G26    29.84S WCI  13

$$




USA.gov is the U.S. government's official web portal to all federal, state and local government web resources and services.